Location: Unspecified
(0.0000°N, 0.0000°E)
Time: 08:19:55
(UTC+00:00)

ELFIN B - Visible Passes

Search period start: 19 May 2019 00:00
Search period end: 29 May 2019 00:00
Orbit: 439 x 466 km, 93.0° (Epoch: 18 May)

Date Brightness Start Highest point End Pass type
(mag) Time Alt. Az. Time Alt. Az. Time Alt. Az.
19 May ? 20:11:45 10° NW 20:12:42 14° NW 20:12:42 14° NW visible
20 May ? 19:36:29 10° N 19:38:38 36° N 19:38:38 36° N visible
21 May ? 19:02:37 10° NE 19:04:34 24° ENE 19:04:34 24° ENE visible
22 May ? 20:01:43 10° NW 20:04:14 20° W 20:04:14 20° W visible
23 May ? 19:26:36 10° N 19:30:02 80° W 19:30:10 77° WSW visible
24 May ? 18:52:51 10° NE 18:55:45 25° E 18:56:07 25° ESE visible
25 May ? 19:51:40 10° NNW 19:54:26 23° W 19:55:46 18° WSW visible
26 May ? 19:16:40 10° N 19:20:07 89° E 19:21:43 30° S visible
27 May ? 18:43:03 10° NE 18:45:50 23° E 18:47:40 15° SE visible
28 May ? 19:41:34 10° NNW 19:44:30 26° W 19:47:22 10° SW visible
